Bowling Green, KY

5:42 AM CDT on May 24, 2017 (GMT -0500)
Bowling Green-Warren County Regional

Weather History for KBWG - December, 2011

Change the Weather History Date:

Monday, December 26, 2011

  Actual Average Record
Temperature  
Mean Temperature 36 °F 36 °F  
Max Temperature 46 °F 46 °F 75 °F (2016)
Min Temperature 25 °F 27 °F 3 °F (1903)
Degree Days  
Heating Degree Days 29 29  
Month to date heating degree days 569 674  
Since 1 July heating degree days 1202 1437  
Cooling Degree Days 0 0  
Month to date cooling degree days 0 0  
Year to date cooling degree days 1810 1491  
Moisture  
Dew Point 30 °F    
Average Humidity 73    
Maximum Humidity 92    
Minimum Humidity 53    
Precipitation  
Precipitation 0.25 in 0.14 in 1.83 in (1895)
Month to date precipitation 4.26 4.13  
Year to date precipitation 62.58 49.22  
Snow  
Snow 0.00 in 0.00 in 1.00 in (1897)
Month to date snowfall 0.0 0.8  
Since 1 July snowfall T 0.8  
Snow Depth 0.00 in    
Sea Level Pressure  
Sea Level Pressure 30.22 in    
Wind  
Wind Speed 4 mph (East)    
Max Wind Speed 14 mph    
Max Gust Speed 18 mph    
Visibility 10 miles    
Events Rain    
T = Trace of Precipitation, MM = Missing Value Source: NWS Daily Summary

Daily Weather History Graph

Daily Weather History Graph

Search for Another Location

Airport or City:

Trip Planner

Search our weather history database for the weather conditions in past years. The results will help you decide how hot, cold, wet, or windy it might be!

Date:

Astronomy

Dec. 26, 2011 Rise Set
Actual Time 6:57 AM CST 4:35 PM CST
Civil Twilight 6:28 AM CST 5:04 PM CST
Nautical Twilight 5:55 AM CST 5:36 PM CST
Astronomical Twilight 5:23 AM CST 6:08 PM CST
Moon 8:19 AM CST (12/26) 6:59 PM CST (12/26)
Length of Visible Light 10h 36m
Length of Day
9h 38m
Waxing Crescent, 5% of the Moon is Illuminated
Dec 26
Waxing Crescent
Jan 1
First Quarter
Jan 9
Full
Jan 16
Last Quarter
Jan 23
New

Hourly Weather History & Observations

Time (CST) Temp. Windchill Dew Point Humidity Pressure Visibility Wind Dir Wind Speed Gust Speed Precip Events Conditions
12:53 AM 34.0 °F - 27.0 °F 75% 30.38 in 10.0 mi Calm Calm - N/A   Clear
1:53 AM 32.0 °F - 25.0 °F 75% 30.38 in 10.0 mi Calm Calm - N/A   Clear
2:53 AM 30.0 °F - 25.0 °F 82% 30.39 in 10.0 mi Calm Calm - N/A   Clear
3:53 AM 28.9 °F - 23.0 °F 78% 30.40 in 10.0 mi Calm Calm - N/A   Clear
4:53 AM 27.0 °F - 21.9 °F 81% 30.39 in 10.0 mi Calm Calm - N/A   Clear
5:53 AM 28.9 °F - 25.0 °F 85% 30.38 in 10.0 mi Calm Calm - N/A   Clear
6:53 AM 27.0 °F - 25.0 °F 92% 30.38 in 10.0 mi Calm Calm - N/A   Clear
7:53 AM 30.9 °F - 27.0 °F 85% 30.40 in 10.0 mi Calm Calm - N/A   Clear
8:53 AM 34.0 °F 28.8 °F 30.0 °F 85% 30.38 in 10.0 mi ENE 5.8 mph - N/A   Clear
9:53 AM 37.9 °F 32.7 °F 30.9 °F 76% 30.37 in 10.0 mi ENE 6.9 mph - N/A   Clear
10:53 AM 42.1 °F 36.6 °F 32.0 °F 67% 30.31 in 10.0 mi East 9.2 mph - N/A   Clear
11:53 AM 43.0 °F 38.2 °F 30.9 °F 62% 30.28 in 10.0 mi ESE 8.1 mph - N/A   Clear
12:53 PM 45.0 °F 39.3 °F 30.9 °F 58% 30.22 in 10.0 mi East 11.5 mph - N/A   Clear
1:53 PM 46.0 °F 39.9 °F 30.0 °F 54% 30.17 in 10.0 mi East 13.8 mph - N/A   Clear
2:53 PM 46.0 °F 42.5 °F 30.9 °F 56% 30.14 in 10.0 mi ESE 6.9 mph - N/A   Clear
3:53 PM 45.0 °F 43.5 °F 30.9 °F 58% 30.16 in 10.0 mi SSE 3.5 mph - N/A   Clear
4:53 PM 43.0 °F 41.3 °F 32.0 °F 65% 30.14 in 10.0 mi ESE 3.5 mph - N/A   Partly Cloudy
5:53 PM 43.0 °F 41.3 °F 33.1 °F 68% 30.11 in 10.0 mi East 3.5 mph - N/A   Overcast
6:53 PM 43.0 °F 40.3 °F 32.0 °F 65% 30.07 in 10.0 mi ENE 4.6 mph - N/A   Scattered Clouds
7:53 PM 43.0 °F - 33.1 °F 68% 30.06 in 10.0 mi Calm Calm - N/A   Overcast
8:53 PM 43.0 °F - 34.0 °F 71% 30.01 in 10.0 mi Calm Calm - 0.00 in Rain Light Rain
9:53 PM 41.0 °F - 37.0 °F 86% 29.99 in 8.0 mi Calm Calm - 0.02 in Rain Light Rain
10:53 PM 41.0 °F - 37.9 °F 89% 29.95 in 8.0 mi Calm Calm - 0.10 in Rain Light Rain
11:53 PM 39.9 °F 35.8 °F 37.9 °F 93% 29.88 in 5.0 mi East 5.8 mph - 0.12 in Rain Rain